Weather History for KNTU - February, 2013

Change the Weather History Date:

Wednesday, February 13, 2013

  Actual Average Record
Temperature  
Mean Temperature 48 °F -  
Max Temperature 51 °F 49 °F 70 °F (2008)
Min Temperature 46 °F 33 °F 21 °F (2012)
Degree Days  
Heating Degree Days 16    
Moisture  
Dew Point 43 °F    
Average Humidity 83    
Maximum Humidity 96    
Minimum Humidity 63    
Precipitation  
Precipitation 0.07 in - - ()
Sea Level Pressure  
Sea Level Pressure 29.74 in    
Wind  
Wind Speed 4 mph (NW)    
Max Wind Speed 15 mph    
Max Gust Speed 21 mph    
Visibility 6 miles    
Events Rain    
Averages and records for this station are not official NWS values.
T = Trace of Precipitation, MM = Missing Value Source: NWS Daily Summary

Daily Weather History Graph

Daily Weather History Graph

Search for Another Location

Airport or City:

Trip Planner

Search our weather history database for the weather conditions in past years. The results will help you decide how hot, cold, wet, or windy it might be!

Date:

Astronomy

Feb. 13, 2013 Rise Set
Actual Time 6:54 AM EST 5:42 PM EST
Civil Twilight 6:27 AM EST 6:09 PM EST
Nautical Twilight 5:57 AM EST 6:39 PM EST
Astronomical Twilight 5:27 AM EST 7:09 PM EST
Moon 8:29 AM EST (2/13) 9:35 PM EST (2/13)
Length of Visible Light 11h 41m
Length of Day
10h 48m
Waxing Crescent, 13% of the Moon is Illuminated
Feb 13
Waxing Crescent
Feb 17
First Quarter
Feb 25
Full
Mar 4
Last Quarter
Mar 11
New

Hourly Weather History & Observations

Time (EST) Temp. Windchill Dew Point Humidity Pressure Visibility Wind Dir Wind Speed Gust Speed Precip Events Conditions
12:56 AM 50.0 °F - 39.9 °F 68% 29.94 in 10.0 mi Calm Calm - N/A   Overcast
1:56 AM 50.0 °F - 39.0 °F 66% 29.95 in 10.0 mi SW 12.7 mph 17.3 mph 0.00 in Rain Light Rain
2:56 AM 51.1 °F - 39.0 °F 63% 29.89 in 10.0 mi SSW 4.6 mph - 0.00 in Rain Light Rain
3:09 AM 48.2 °F - 39.2 °F 71% 29.88 in 10.0 mi WSW 5.8 mph - 0.00 in   Overcast
3:56 AM 50.0 °F - 39.0 °F 66% 29.86 in 10.0 mi Calm Calm - 0.00 in   Overcast
4:56 AM 50.0 °F - 39.0 °F 66% 29.85 in 10.0 mi SSE 4.6 mph - N/A   Overcast
5:56 AM 48.9 °F - 39.0 °F 69% 29.84 in 10.0 mi South 4.6 mph - N/A   Overcast
6:15 AM 50.0 °F - 39.2 °F 66% 29.81 in 10.0 mi SSE 4.6 mph - 0.00 in Rain Light Rain
6:26 AM 50.0 °F - 39.2 °F 66% 29.83 in 10.0 mi Calm Calm - 0.00 in   Overcast
6:56 AM 48.0 °F - 42.1 °F 80% 29.83 in 10.0 mi Calm Calm - 0.00 in   Overcast
7:18 AM 48.2 °F - 41.0 °F 76% 29.82 in 10.0 mi Calm Calm - 0.00 in Rain Light Rain
7:56 AM 48.0 °F - 43.0 °F 83% 29.84 in 10.0 mi Calm Calm - 0.00 in Rain Light Rain
8:18 AM 50.0 °F - 42.8 °F 76% 29.84 in 10.0 mi Calm Calm - 0.01 in   Overcast
8:27 AM 50.0 °F - 41.0 °F 71% 29.84 in 10.0 mi SSW 4.6 mph - 0.01 in Rain Light Rain
8:40 AM 50.0 °F - 42.8 °F 76% 29.85 in 10.0 mi WSW 3.5 mph - 0.01 in   Overcast
8:56 AM 50.0 °F - 43.0 °F 77% 29.86 in 10.0 mi Calm Calm - 0.01 in   Overcast
9:03 AM 50.0 °F - 44.6 °F 82% 29.85 in 10.0 mi SSW 5.8 mph - 0.00 in Rain Light Rain
9:14 AM 50.0 °F - 44.6 °F 82% 29.85 in 10.0 mi SW 3.5 mph - 0.00 in Rain Light Rain
9:56 AM 51.1 °F - 45.0 °F 80% 29.83 in 10.0 mi SSW 5.8 mph - 0.00 in Rain Light Rain
10:07 AM 51.8 °F - 44.6 °F 76% 29.83 in 10.0 mi SSW 4.6 mph - 0.00 in   Overcast
10:56 AM 51.1 °F - 43.0 °F 74% 29.80 in 10.0 mi Calm Calm - 0.00 in   Overcast
11:12 AM 51.8 °F - 44.6 °F 76% 29.78 in 10.0 mi Calm Calm - 0.00 in Rain Light Rain
11:56 AM 51.1 °F - 45.0 °F 80% 29.76 in 6.0 mi North 5.8 mph - 0.00 in Rain Light Rain
12:03 PM 51.8 °F - 44.6 °F 76% 29.75 in 7.0 mi North 3.5 mph - 0.00 in   Overcast
12:28 PM 50.0 °F - 44.6 °F 82% 29.73 in 2.5 mi NE 5.8 mph - 0.00 in   Light Drizzle
12:56 PM 50.0 °F - 46.9 °F 89% 29.71 in 2.5 mi North 5.8 mph - 0.00 in   Light Drizzle
1:08 PM 48.2 °F - 46.4 °F 93% 29.70 in 2.5 mi North 8.1 mph - 0.00 in   Light Drizzle
1:20 PM 48.2 °F - 46.4 °F 93% 29.70 in 2.5 mi NNE 6.9 mph - 0.00 in   Light Drizzle
1:35 PM 46.4 °F 43.5 °F 44.6 °F 93% 29.70 in 2.0 mi North 5.8 mph - 0.01 in Rain Light Rain
1:56 PM 46.9 °F - 44.1 °F 90% 29.67 in 3.0 mi ENE 8.1 mph - 0.02 in   Light Drizzle
2:19 PM 46.4 °F 42.4 °F 44.6 °F 93% 29.65 in 5.0 mi NE 8.1 mph - 0.00 in   Overcast
2:56 PM 46.0 °F 43.1 °F 45.0 °F 96% 29.65 in 6.0 mi East 5.8 mph - 0.00 in   Overcast
3:26 PM 46.4 °F 43.5 °F 44.6 °F 93% 29.63 in 2.5 mi East 5.8 mph - N/A   Overcast
3:30 PM 46.4 °F 42.4 °F 44.6 °F 93% 29.62 in 2.0 mi East 8.1 mph - 0.00 in   Light Drizzle
3:41 PM 46.4 °F 42.9 °F 42.8 °F 87% 29.61 in 1.8 mi East 6.9 mph - 0.00 in   Light Drizzle
3:56 PM 46.0 °F 42.5 °F 45.0 °F 96% 29.63 in 1.8 mi ENE 6.9 mph - 0.00 in   Light Drizzle
4:03 PM 46.4 °F 44.3 °F 44.6 °F 93% 29.63 in 1.2 mi ENE 4.6 mph - 0.00 in   Light Drizzle
4:31 PM 46.4 °F 44.3 °F 42.8 °F 87% 29.60 in 1.2 mi East 4.6 mph - 0.00 in   Light Drizzle
4:56 PM 46.0 °F - 44.1 °F 93% 29.63 in 1.5 mi Calm Calm - 0.01 in   Light Drizzle
5:56 PM 46.0 °F - 43.0 °F 89% 29.60 in 1.5 mi Calm Calm - 0.02 in   Light Drizzle
6:28 PM 46.4 °F 45.2 °F 44.6 °F 93% 29.59 in 1.5 mi West 3.5 mph - 0.01 in   Light Drizzle
6:56 PM 46.0 °F 43.9 °F 44.1 °F 93% 29.61 in 2.0 mi West 4.6 mph - 0.01 in   Light Drizzle
7:56 PM 46.9 °F - 45.0 °F 93% 29.61 in 2.0 mi WNW 5.8 mph - 0.00 in   Light Drizzle
8:08 PM 46.4 °F 41.9 °F 44.6 °F 93% 29.61 in 2.0 mi NW 9.2 mph - 0.00 in   Light Drizzle
8:30 PM 46.4 °F 42.4 °F 44.6 °F 93% 29.62 in 2.0 mi NW 8.1 mph - 0.00 in   Overcast
8:56 PM 46.0 °F 42.5 °F 44.1 °F 93% 29.64 in 2.0 mi WNW 6.9 mph - 0.00 in   Overcast
9:25 PM 46.4 °F 41.9 °F 44.6 °F 93% 29.65 in 2.0 mi WNW 9.2 mph - N/A   Overcast
9:34 PM 46.4 °F 41.5 °F 42.8 °F 87% 29.66 in 6.0 mi West 10.4 mph - N/A   Overcast
9:56 PM 46.0 °F 41.4 °F 45.0 °F 96% 29.68 in 10.0 mi West 9.2 mph 19.6 mph N/A   Overcast
10:12 PM 46.4 °F 40.7 °F 44.6 °F 93% 29.67 in 10.0 mi WNW 12.7 mph - N/A   Overcast
10:56 PM 46.9 °F - 45.0 °F 93% 29.70 in 10.0 mi WNW 10.4 mph - N/A   Overcast
11:56 PM 46.0 °F 39.6 °F 43.0 °F 89% 29.73 in 10.0 mi WNW 15.0 mph 20.7 mph N/A   Overcast